Regional Weather Roundup
Issued by NWS

Home | Current Version | Previous Version | Graphics & Text | Print | Product List | Glossary On
Versions: 1 2 3 4 5 6 7 8 9 10 11 12 13 14 15 16 17 18 19 20 21 22 23 24 25 26 27 28 29 30 31 32 33 34 35 36 37 38 39 40 41 42 43 44 45 46 47 48 49 50
717
ASUS43 KFSD 040210
RWRSD

WEATHER ROUNDUP FOR SOUTH DAKOTA
NATIONAL WEATHER SERVICE SIOUX FALLS SD
900 PM CDT TUE MAY 03 2016

NOTE: "FAIR" INDICATES FEW OR NO CLOUDS BELOW 12,000 FEET WITH NO
SIGNIFICANT WEATHER AND/OR OBSTRUCTIONS TO VISIBILITY.


SDZ001>005-009-010-012>017-040300-
NORTHWEST AND NORTH CENTRAL SOUTH DAKOTA

CITY           SKY/WX    TMP DP  RH WIND       PRES   REMARKS
BUFFALO          N/A     68  37  32 N10       30.02R
FAITH            N/A     61  42  49 N7        30.03R
MOBRIDGE       CLEAR     61  41  47 N9        29.96R
$$

SDZ012>016-024>037-041>051-057-063-072>074-040300-
SOUTHWEST AND SOUTH CENTRAL SOUTH DAKOTA

CITY           SKY/WX    TMP DP  RH WIND       PRES   REMARKS
RAPID CTY ARPT CLEAR     58  41  53 N8        30.08R
PIERRE         CLEAR     65  41  41 N14       29.95R
CUSTER         CLEAR     59  32  36 N5        30.18R
ELLSWORTH AFB  CLEAR     67  40  37 N7        30.08R
PHILIP         CLEAR     58  46  64 NW9       30.00S
PINE RIDGE     CLEAR     60  38  43 N7        30.09R
WINNER         FAIR      62  44  51 NW6       29.96R
$$

SDZ004>011-016>023-039-040-040300-
NORTHEAST SOUTH DAKOTA

CITY           SKY/WX    TMP DP  RH WIND       PRES   REMARKS
ABERDEEN       CLEAR     61  30  31 N13       29.94R
WATERTOWN      CLEAR     56  30  37 N10       29.89R
BROOKINGS      CLEAR     58  30  34 N10       29.87R
SISSETON         N/A     60  29  30 N20       29.89R
$$

SDZ017-020-022-023-036>040-048>070-040300-
SOUTHEAST SOUTH DAKOTA

CITY           SKY/WX    TMP DP  RH WIND       PRES   REMARKS
SIOUX FALLS    CLEAR     63  33  32 N16G22    29.85R
HURON          CLEAR     62  29  28 N13       29.91R
CHAMBERLAIN    CLEAR     66  44  45 N8        29.94R
MITCHELL       CLEAR     63  37  38 N14       29.90R
YANKTON        PTCLDY    64  45  48 W15       29.85R
$$

ABBREVIATIONS USED IN REMARKS
   TC - TEMPERATURE IN CELSIUS
  WCI - WIND CHILL INDEX
   HX - HEAT INDEX
  VSB - VISIBILITY





USA.gov is the U.S. government's official web portal to all federal, state and local government web resources and services.